SILO ALERT LOG


Silo ID Alert Type Alert Message Silo Type Points Depth (mm) Strength Temperature (°C) Humidity (%) Height (mm) Volume (㎥) Weight (t) Flag Time
WJWJR01 Humidity 습도센서 측정값이 80% 초과 76 7520 1207 23.6 83.6 120 13.572 8.58 0 2026-07-09 10:26:04.000
WJWJR01 Humidity 습도센서 측정값이 80% 초과 73 7520 1242 23.7 85.9 120 13.572 8.58 0 2026-07-09 09:26:04.000
WJWJR05 Humidity 습도센서 측정값이 80% 초과 67 5240 3023 26.9 80.1 2490 281.612 178.035 0 2026-07-09 09:25:46.000
WJWJR01 Humidity 습도센서 측정값이 80% 초과 74 7540 1240 23.6 84 99 11.31 7.15 0 2026-07-09 08:26:00.000
WJWJR05 Humidity 습도센서 측정값이 80% 초과 65 5200 2997 26.5 81 2530 286.136 180.895 0 2026-07-09 08:25:48.000
WJWJR01 Humidity 습도센서 측정값이 80% 초과 73 7520 1225 23.5 82.9 120 13.572 8.58 0 2026-07-09 07:25:57.000
WJWJR05 Humidity 습도센서 측정값이 80% 초과 66 5280 3068 26.1 80.9 2450 277.088 175.175 0 2026-07-09 07:25:48.000
WJWJR01 Humidity 습도센서 측정값이 80% 초과 78 7510 1219 23.5 82.9 129 14.703 9.295 0 2026-07-09 06:26:00.000
WJWJR05 Humidity 습도센서 측정값이 80% 초과 65 5250 2998 26.1 80.8 2480 280.481 177.32 0 2026-07-09 06:25:50.000
WJWJR01 Humidity 습도센서 측정값이 80% 초과 76 7530 1247 23.6 82.9 109 12.441 7.865 0 2026-07-09 05:25:57.000
WJWJR05 Humidity 습도센서 측정값이 80% 초과 65 5260 3040 26.3 80.6 2470 279.35 176.605 0 2026-07-09 05:25:56.000
WJWJR01 Humidity 습도센서 측정값이 80% 초과 74 7510 1237 23.6 82.9 129 14.703 9.295 0 2026-07-09 04:26:03.000
WJWJR05 Humidity 습도센서 측정값이 80% 초과 66 5210 2989 26.3 80.6 2520 285.005 180.18 0 2026-07-09 04:25:48.000
WJWJR01 Humidity 습도센서 측정값이 80% 초과 76 7530 1213 23.7 83 109 12.441 7.865 0 2026-07-09 03:26:03.000
WJWJR05 Humidity 습도센서 측정값이 80% 초과 66 5230 3028 26.4 80.6 2500 282.743 178.75 0 2026-07-09 03:25:50.000
WJWJR01 Humidity 습도센서 측정값이 80% 초과 72 7540 1195 23.8 82.9 99 11.31 7.15 0 2026-07-09 02:26:03.000
WJWJR05 Humidity 습도센서 측정값이 80% 초과 66 5220 2974 26.4 80.6 2510 283.874 179.465 0 2026-07-09 02:25:53.000
WJWJR01 Humidity 습도센서 측정값이 80% 초과 74 7500 1225 23.9 82.8 139 15.834 10.01 0 2026-07-09 01:26:02.000
WJWJR05 Humidity 습도센서 측정값이 80% 초과 66 5290 2972 26.4 80.3 2440 275.957 174.46 0 2026-07-09 01:25:48.000
WJWJR01 Humidity 습도센서 측정값이 80% 초과 77 7520 1216 24 82.7 120 13.572 8.58 0 2026-07-09 00:26:00.000

[첫 페이지] [36] [37] [38] [39] 40 [41] [42] [43] [44] [마지막 페이지]